Location: Cerezo de Arriba
(41.2389°N, 3.5585°W)
Time: 01:01:03
(UTC+00:00)

BlueWalker 3 - Pass Details

Date: 19 May 2025
Orbit: 461 x 471 km, 53.2° (Epoch: 24 June)

Event Time Altitude Azimuth Distance (km) Brightness Sun altitude
Rises 22:41:18 0° 306° (NW) 2,497 6.4 -25.4°
Reaches altitude 10° 22:43:27 10° 303° (WNW) 1,620 5.2 -25.5°
Enters shadow 22:45:25 29° 294° (WNW) 873 3.5 -25.7°
